EHI
0 0 0 0 0 0 0 0 0 0 0 0 0 0 0 0 0 0 0 1 2 5 9 13 15 15 12 13 16 18 18 19 21 22 22 19 13 7 5 4 2 0 0 0 0 0 0 0 0
0 0 0 0 0 0 0 0 0 0 0 0 0 0 0 0 0 0 1 2 4 7 10 14 18 17 13 12 15 17 17 17 20 21 20 16 10 6 4 3 2 1 0 0 0 0 0 0 0
0 0 0 0 0 0 0 0 0 0 0 0 0 0 0 0 0 0 1 4 8 11 13 17 20 18 13 12 15 16 15 15 17 17 14 10 7 4 3 3 2 1 1 0 0 0 0 0 0
0 0 0 0 0 0 0 0 0 0 0 0 0 0 0 0 0 0 1 5 11 14 15 17 19 18 13 11 14 15 14 14 14 14 11 7 5 3 2 1 2 2 2 1 0 0 0 0 0
0 0 0 0 0 0 0 0 0 0 0 0 0 0 0 0 0 1 4 7 12 15 15 15 16 16 14 12 12 13 13 13 13 11 9 6 4 2 0 0 1 1 1 1 0 0 0 0 0
0 0 0 0 0 0 0 0 0 0 0 0 0 0 0 0 0 3 6 8 11 14 13 12 12 14 15 14 12 11 12 12 12 11 8 6 4 2 1 1 0 0 0 0 0 0 0 0 0
0 0 0 0 0 0 0 0 0 0 0 0 0 0 0 0 0 3 6 8 10 11 12 11 11 12 14 14 12 10 10 11 11 10 9 7 5 3 3 2 0 0 0 0 0 0 0 0 0
0 0 0 0 0 0 0 0 0 0 0 0 0 0 0 0 1 3 5 7 9 10 10 11 10 9 9 10 9 7 7 8 9 8 7 6 4 3 2 1 0 0 0 0 0 0 0 0 0
0 0 0 0 0 0 0 0 0 0 0 0 0 0 1 1 1 3 5 7 8 9 10 10 8 5 5 4 4 4 5 5 5 4 4 4 3 2 1 0 0 0 0 0 0 0 0 0 0
0 0 0 0 0 0 0 0 0 0 0 0 0 0 1 1 1 2 5 6 8 9 9 8 5 3 2 1 1 2 3 3 3 2 2 2 2 2 2 1 0 0 0 0 0 0 1 0 0
0 0 0 0 0 0 0 0 0 0 0 0 0 0 0 1 0 1 3 5 6 7 7 5 3 2 1 0 1 2 3 3 2 1 0 1 3 3 2 1 0 0 0 0 0 0 0 0 0
0 0 0 0 0 0 0 0 0 0 0 0 0 0 0 1 0 1 2 3 4 4 4 2 1 1 0 0 1 2 2 2 1 0 0 1 2 2 1 0 0 0 0 0 0 0 0 0 0
0 0 0 0 0 0 0 0 0 0 0 0 0 0 0 0 0 0 1 1 2 2 1 1 0 0 0 0 0 1 1 1 0 0 0 0 1 1 0 0 0 0 0 0 0 0 0 0 0
0 0 0 0 0 0 0 0 0 0 0 0 0 1 0 0 0 0 0 0 1 1 0 0 0 0 0 0 0 0 0 0 0 0 0 0 0 0 0 0 0 0 0 0 0 0 0 0 0
0 0 0 0 0 0 0 0 0 0 0 0 0 0 0 0 0 0 0 0 0 0 0 0 0 0 0 0 0 0 0 0 0 0 0 0 0 0 0 0 0 0 0 0 0 0 0 0 0
0 0 0 0 0 0 0 0 0 0 0 0 0 0 0 0 0 0 0 0 0 0 0 0 0 0 0 0 0 0 0 0 0 0 0 0 0 0 0 0 0 0 0 0 0 0 0 0 0
0 0 0 0 0 0 0 0 0 0 0 0 0 0 0 0 0 0 0 0 0 0 0 0 0 0 0 0 0 0 0 0 0 0 0 0 0 0 0 0 0 0 0 0 0 0 0 0 0
0 0 0 0 0 0 0 0 0 0 0 0 0 0 0 0 0 0 0 0 0 0 0 0 0 0 0 0 0 0 0 0 0 0 0 0 0 0 0 0 0 0 0 0 0 0 0 0 0
0 0 0 0 0 0 0 0 0 0 0 0 0 0 0 0 0 0 0 0 0 0 0 0 0 0 0 0 0 0 0 0 0 0 0 0 0 0 0 0 0 0 0 0 0 0 0 0 0
0 0 0 0 0 0 0 0 0 0 0 0 0 0 0 0 0 0 0 0 0 0 0 0 0 0 0 0 0 0 0 0 0 0 0 0 0 0 0 0 0 0 0 0 0 0 0 0 0
0 0 0 0 0 0 0 0 0 0 0 0 0 0 0 0 0 0 0 0 0 0 0 0 0 0 0 0 0 0 0 0 0 0 0 0 0 0 0 0 0 0 0 0 0 0 0 0 0
0 0 0 0 0 0 0 0 0 0 0 0 0 0 0 0 0 0 0 0 0 0 0 0 0 0 0 0 0 0 0 0 0 0 0 0 0 0 0 0 0 0 0 0 0 0 0 0 0
0 0 0 0 0 0 0 0 0 0 0 0 0 0 0 0 0 0 0 0 0 0 0 0 0 0 0 0 0 0 0 0 0 0 0 0 0 0 0 0 0 0 0 0 0 0 0 0 0
0 0 0 0 0 0 0 0 0 0 0 0 0 0 0 0 0 0 0 0 0 0 0 0 0 0 0 0 0 0 0 0 0 0 0 0 0 0 0 0 0 0 0 0 0 0 0 0 0
0 0 0 0 0 0 0 0 0 0 0 0 0 0 0 0 0 0 0 0 0 0 0 0 0 0 0 0 0 0 0 0 0 0 0 0 0 0 0 0 0 0 0 0 0 0 0 0 0
0 0 0 0 0 0 0 0 0 0 0 0 0 0 0 0 0 0 0 0 0 0 0 0 0 0 0 0 0 0 0 0 0 0 0 0 0 0 0 0 0 0 0 0 0 0 0 0 0
0 0 0 0 0 0 0 0 0 0 0 0 0 0 0 0 0 0 0 0 0 0 0 0 0 0 0 0 0 0 0 0 0 0 0 0 0 0 0 0 0 0 0 0 0 0 0 0 0
0 0 0 0 0 0 0 0 0 0 0 0 0 0 0 0 0 0 0 0 0 0 0 0 0 0 0 0 0 0 0 0 0 0 0 0 0 0 0 0 0 0 0 0 0 0 0 0 0
0 0 0 0 0 0 0 0 0 0 0 0 0 0 0 0 0 0 0 0 0 0 0 0 0 0 0 0 0 0 0 0 0 0 0 0 0 0 0 0 0 0 0 0 0 0 0 0 0
0 0 0 0 0 0 0 0 0 0 0 0 0 0 0 0 0 0 0 0 0 0 0 0 0 0 0 0 0 0 0 0 0 0 0 0 0 0 0 0 0 0 0 0 0 0 0 0 0
Wind_Speed
7 4 3 5 6 4 2 3 2 1 1 1 1 1 4 4 4 3 1 1 2 3 3 5 7 7 8 8 8 8 9 9 9 9 9 9 9 9 8 8 8 8 7 7 7 7 7 7 7
2 2 5 6 5 1 4 3 2 2 2 1 2 1 1 1 0 1 1 1 2 3 3 4 7 7 8 8 8 8 8 9 9 9 9 9 8 8 8 8 8 7 7 7 6 6 7 7 7
2 4 5 5 3 5 4 2 2 3 2 1 2 2 0 1 0 1 1 1 2 3 3 4 7 7 7 8 8 8 8 8 8 8 8 8 8 8 8 7 7 7 6 6 6 6 6 6 6
3 5 5 4 3 3 3 2 2 2 2 2 1 2 2 2 1 1 1 3 4 3 3 3 6 6 7 7 7 7 8 8 8 8 7 7 7 7 7 6 6 6 6 6 6 6 6 6 5
4 5 4 1 3 2 2 2 1 1 2 1 0 1 3 3 1 2 3 3 4 2 2 3 5 5 5 6 7 7 7 7 7 7 7 6 6 6 6 6 5 6 6 5 5 5 5 5 5
5 4 3 2 3 3 2 1 0 1 1 1 1 2 3 1 1 1 2 3 3 3 2 2 5 5 4 5 6 6 6 6 6 6 6 6 6 6 6 5 5 5 5 5 5 5 5 5 4
4 4 3 3 2 3 2 1 1 1 2 3 2 2 3 2 1 1 2 2 2 2 2 1 2 3 4 4 4 5 5 6 6 6 6 6 5 6 6 5 5 5 5 5 5 5 5 5 5
4 4 2 2 3 3 2 1 1 2 4 2 2 3 4 3 1 1 2 1 2 2 2 1 1 2 2 3 4 5 5 5 5 5 5 6 6 6 6 5 5 5 5 4 5 5 5 5 6
3 4 2 4 4 3 1 1 2 1 1 2 2 3 4 2 2 2 1 1 1 1 1 2 1 2 2 2 3 4 4 4 4 4 6 6 3 3 4 5 6 6 5 5 5 5 5 6 5
4 3 5 3 3 2 2 2 2 2 2 3 3 3 1 2 4 3 2 2 3 2 2 2 1 1 1 2 2 2 2 2 2 2 3 3 3 3 4 5 6 6 6 6 5 6 5 5 3
2 4 3 2 3 2 2 2 2 1 4 5 5 4 1 2 3 4 4 3 3 3 2 2 1 1 2 1 1 1 1 2 2 2 2 3 3 2 3 2 3 3 4 3 4 4 3 2 2
1 2 2 2 1 1 2 2 2 4 8 5 4 3 3 3 4 5 4 3 2 3 3 2 1 1 1 2 1 1 1 2 2 1 2 3 2 2 2 2 2 2 1 2 2 2 2 3 2
1 2 2 3 3 3 2 3 3 7 7 4 2 2 4 4 4 3 3 3 2 3 3 2 2 2 2 2 2 2 1 2 2 1 1 2 3 2 2 1 1 1 1 2 2 2 2 2 2
1 2 3 3 3 1 2 4 2 7 4 2 1 3 3 4 4 2 2 3 4 4 3 2 2 2 3 3 2 2 1 1 2 2 2 2 2 3 2 2 1 1 1 1 2 2 2 1 1
0 2 4 2 1 1 1 5 4 6 2 2 3 3 3 3 3 3 4 4 5 4 3 3 3 2 3 3 3 2 2 2 2 2 2 2 2 3 3 2 2 1 1 2 2 2 2 2 2
2 2 3 4 2 1 1 7 7 4 1 3 3 3 3 3 3 3 3 3 3 3 3 3 3 2 3 3 3 2 1 2 2 2 2 2 2 3 3 2 2 1 1 1 2 2 2 2 2
3 1 3 5 2 1 1 7 8 3 2 4 4 3 3 4 3 2 2 2 3 4 3 3 3 3 3 3 3 2 2 2 1 2 2 2 2 3 3 2 2 2 2 1 1 1 1 1 1
2 2 3 4 3 1 3 8 10 5 3 5 4 4 3 4 4 2 2 2 3 3 3 3 3 3 3 3 3 2 2 1 1 2 2 2 2 3 3 2 2 2 2 2 1 2 1 1 1
2 2 4 5 3 2 6 10 12 8 4 5 4 4 5 5 3 1 1 1 2 2 3 3 3 3 3 2 2 2 1 1 1 1 2 2 2 3 3 2 2 2 2 2 1 1 2 2 1
2 2 4 5 2 2 5 10 9 6 4 4 4 4 5 4 2 1 0 1 2 3 3 3 3 3 2 2 2 2 2 1 1 2 2 2 2 2 2 2 2 2 2 2 2 2 1 1 1
2 4 4 4 5 2 5 8 5 4 3 3 3 3 3 3 2 1 1 1 1 2 3 3 3 3 3 3 3 3 3 2 1 2 2 1 1 2 2 2 2 2 2 2 2 2 3 2 1
4 3 3 2 2 4 2 5 7 4 5 4 3 3 3 2 1 1 2 2 2 2 2 3 3 3 3 3 3 3 3 2 1 1 1 1 1 2 2 2 2 2 2 2 1 1 2 3 1
4 1 0 1 1 3 2 2 9 3 4 5 4 3 3 2 1 1 2 2 1 2 2 2 3 3 3 3 3 3 2 2 1 2 2 1 1 1 1 1 2 2 2 1 1 1 2 2 2
2 3 3 3 2 3 3 3 8 4 4 4 3 3 2 1 1 1 0 1 1 1 2 2 3 3 3 3 3 3 3 3 3 2 1 1 0 1 1 1 1 1 1 1 1 1 2 1 2
2 4 4 5 3 6 1 3 9 6 4 4 3 3 2 1 0 1 0 1 1 1 2 2 3 3 3 3 3 3 3 3 4 3 2 1 0 0 0 1 1 1 1 1 1 1 1 2 2
2 4 5 3 4 5 2 6 8 4 3 2 2 1 1 1 1 1 2 2 2 2 2 3 3 3 3 3 2 2 3 2 2 3 2 2 1 1 1 1 1 1 1 1 1 1 1 1 2
4 2 3 4 0 3 6 7 9 2 3 2 2 1 1 1 1 1 1 2 2 2 2 3 3 3 3 3 2 2 3 2 2 2 2 1 1 1 1 1 1 1 1 1 1 1 1 1 1
3 5 4 3 2 4 6 5 5 4 4 3 2 2 3 2 2 1 1 1 2 2 2 2 3 3 3 3 3 2 2 3 3 2 2 2 2 1 1 1 1 2 2 2 2 1 2 2 2
3 3 3 3 3 4 4 8 5 4 3 3 4 3 3 2 2 2 1 1 0 0 1 1 1 1 2 3 3 2 2 2 2 2 3 3 2 2 2 2 2 2 2 2 2 2 2 2 2
4 5 6 4 4 4 3 9 3 3 3 2 3 3 2 2 2 2 1 1 1 0 0 1 1 1 2 2 2 2 2 2 2 2 3 3 3 2 3 2 2 2 2 3 3 3 3 3 3
Wind_Direction
351 9 53 54 58 55 227 244 245 270 254 304 296 172 159 168 176 202 303 84 109 136 155 156 146 144 139 134 132 128 124 121 119 119 119 119 119 116 112 110 107 101 99 99 97 95 91 89 86
352 24 52 60 94 150 254 247 241 248 240 306 2 51 103 236 265 95 346 325 115 125 131 145 140 140 140 135 133 131 126 125 124 122 121 121 120 120 115 110 106 103 99 96 99 97 93 91 90
26 48 78 80 127 184 209 222 234 296 297 45 12 4 235 235 244 193 246 139 101 105 104 136 136 138 142 139 134 133 131 128 127 126 124 123 121 118 117 111 106 102 99 97 97 99 96 91 88
57 44 55 79 199 216 211 238 249 320 347 28 73 324 299 303 237 213 157 115 99 98 105 127 129 135 139 140 137 135 134 133 130 125 125 125 122 119 114 113 108 102 97 95 93 95 96 91 88
56 72 70 65 239 253 254 261 240 292 299 310 135 259 283 318 333 143 133 126 120 114 111 128 122 130 137 142 140 137 135 137 133 128 126 124 121 122 117 107 107 104 100 94 93 89 90 90 87
57 67 100 210 250 276 270 266 214 293 289 284 181 222 262 308 53 125 118 122 126 125 113 127 125 121 127 139 141 138 135 132 130 127 125 120 116 115 112 110 107 105 104 99 92 89 83 83 83
101 102 153 190 231 269 255 293 181 254 270 250 183 193 271 293 286 127 92 98 107 108 100 96 121 123 123 125 138 137 137 131 125 121 115 107 106 107 105 103 103 100 98 94 89 84 79 74 75
117 105 125 195 206 246 267 300 245 216 259 263 172 190 242 247 228 86 72 65 111 110 104 111 111 107 109 117 127 125 120 116 119 115 108 98 93 94 93 86 85 87 87 89 85 81 80 72 69
89 85 187 212 203 243 267 301 302 270 239 282 245 236 253 196 151 104 89 14 158 137 119 120 126 121 114 120 115 117 108 99 93 99 104 97 87 83 82 77 77 75 74 76 81 80 77 69 60
91 148 217 214 202 235 279 264 269 316 306 282 291 304 306 164 166 165 179 201 207 193 187 138 125 144 129 113 96 104 108 91 80 83 109 102 92 82 81 73 74 73 66 61 63 72 72 68 50
125 189 226 241 229 227 269 284 261 220 263 247 253 265 255 212 193 195 205 205 223 202 193 166 139 136 132 119 108 108 115 107 84 86 115 111 97 85 75 72 64 58 59 52 47 48 50 57 57
141 241 227 257 256 226 239 251 262 231 241 255 243 215 204 210 210 208 215 223 229 213 204 184 152 142 153 139 123 121 134 130 131 133 120 125 114 98 92 78 67 61 56 62 51 46 48 55 58
183 262 270 262 274 254 248 247 253 263 267 280 267 202 200 214 226 222 221 219 218 217 206 200 173 175 165 142 143 122 143 150 144 138 125 135 134 128 114 92 73 67 67 75 67 54 52 56 51
211 274 300 293 277 260 249 281 265 272 279 283 233 224 222 219 218 209 216 216 213 216 200 194 188 190 162 149 145 140 141 149 136 134 138 131 138 137 129 111 88 64 65 76 84 80 65 60 69
329 335 328 317 304 287 355 309 258 265 287 276 257 246 241 244 226 211 214 217 207 210 195 190 192 180 158 144 142 144 151 138 146 144 137 128 129 137 131 122 108 81 68 79 77 65 66 59 65
34 28 332 316 348 348 85 283 282 280 266 273 274 266 255 261 244 222 209 214 198 192 188 195 182 169 152 141 129 128 133 132 138 135 127 124 126 132 128 125 122 107 88 87 93 83 77 59 54
29 353 290 307 325 359 171 267 288 308 275 274 275 269 262 275 272 250 227 210 191 183 182 184 169 153 141 126 111 110 103 113 124 123 115 125 126 129 123 122 117 108 91 83 102 84 103 96 66
251 261 275 283 303 342 268 269 286 295 277 273 274 275 271 262 261 252 235 210 177 167 164 163 137 127 126 113 103 94 90 84 87 109 118 132 132 128 118 111 103 102 96 74 86 102 76 108 109
186 212 267 271 286 300 266 276 285 294 288 277 270 270 270 262 261 235 222 182 145 142 148 148 132 124 126 123 131 132 134 119 86 82 119 126 132 131 123 117 111 110 109 106 106 115 86 61 75
185 241 269 289 313 290 292 285 280 282 268 260 256 257 260 271 286 287 240 127 148 164 159 149 146 133 136 130 132 133 132 125 113 95 72 98 122 131 125 126 128 122 118 109 105 115 109 44 45
237 220 242 274 324 344 326 309 303 299 302 303 285 263 264 255 243 242 220 190 156 171 173 164 158 137 134 125 111 93 80 69 68 71 60 55 99 113 123 135 136 126 128 141 145 150 151 148 35
255 241 227 266 339 312 15 305 296 302 315 313 309 305 292 284 250 224 205 205 198 193 173 153 146 135 130 127 134 137 135 143 176 126 107 66 77 97 110 123 131 128 127 139 161 162 160 154 173
219 306 264 287 204 301 311 241 286 317 310 301 295 292 298 295 285 240 206 204 195 159 142 141 133 132 130 135 145 137 125 126 118 100 97 72 56 78 101 110 117 119 119 124 128 133 150 164 174
152 54 37 40 66 287 239 196 280 266 255 282 283 284 289 291 320 319 5 116 97 97 120 141 142 146 143 143 142 142 148 145 133 121 116 76 51 61 82 99 103 109 115 129 154 156 141 152 163
88 83 21 355 353 260 237 212 252 261 256 251 263 273 282 295 302 293 312 165 165 165 166 160 153 161 157 153 159 163 169 165 163 156 148 170 191 214 169 131 134 137 153 162 165 157 160 159 159
174 143 157 216 249 285 297 243 257 276 286 280 277 277 284 298 282 246 224 210 210 197 178 170 168 175 168 166 176 169 173 176 173 164 160 180 195 214 189 167 170 172 176 171 165 162 182 163 171
142 177 164 137 207 284 273 282 299 305 325 339 341 339 299 297 287 268 236 203 199 200 199 189 183 182 181 181 176 176 180 179 176 164 158 180 191 196 176 170 174 180 181 180 171 176 200 176 189
151 146 116 137 191 267 289 274 259 283 290 311 317 295 293 302 303 293 264 226 214 205 200 190 193 195 191 180 183 188 188 188 178 165 178 189 200 196 178 186 185 193 196 190 179 191 203 189 207
138 148 143 148 178 186 269 273 231 230 250 252 267 276 274 285 289 288 285 271 280 182 178 181 194 194 198 189 183 180 187 187 176 185 196 196 203 196 196 198 190 201 208 201 192 206 203 202 218
180 179 156 172 225 202 219 269 275 231 257 253 272 288 286 277 288 304 307 342 21 66 201 202 208 208 219 198 180 185 182 178 184 199 205 197 201 207 203 197 200 213 215 210 204 212 212 208 218